Theta_e
313 314 315 316 313 312 311 311 312 313 313 311 310 310 310 312 314 314 313 313 312 312 313 312 311 310 308 309 308 307 307 307 316 318 318 319 320 326 334 338 337 340 339 339
314 313 314 312 311 310 311 310 310 312 312 310 310 309 311 313 314 312 312 312 313 312 310 309 309 308 307 306 306 306 307 308 308 312 318 321 320 318 322 332 332 335 339 339
312 313 310 310 310 309 310 310 310 311 310 309 309 310 312 313 312 311 311 312 310 309 308 308 307 306 305 304 304 305 305 306 308 310 311 319 319 320 321 320 330 336 336 336
312 312 309 309 308 309 309 309 309 309 308 307 310 308 312 313 312 312 312 310 309 308 308 307 306 306 305 304 302 302 304 305 305 309 312 315 319 322 323 327 328 324 336 338
311 311 308 308 309 309 309 308 308 308 306 307 308 308 310 314 313 313 310 308 308 307 307 306 305 305 304 303 302 300 300 303 304 306 308 310 313 317 322 325 328 327 330 331
310 308 308 308 308 307 306 306 307 308 308 308 310 311 312 312 312 312 310 308 307 307 306 306 305 304 303 301 301 300 298 299 302 303 306 308 309 312 315 319 324 329 328 334
309 308 307 306 306 306 307 307 309 310 309 310 312 310 311 311 312 310 309 307 307 306 306 305 304 302 300 299 298 299 301 299 299 301 303 305 306 309 312 315 319 322 330 330
310 308 307 307 306 307 309 307 308 307 310 311 310 309 310 312 310 309 308 307 305 305 305 304 303 301 299 297 295 296 297 299 298 298 300 301 303 306 308 310 316 323 329 331
310 310 307 307 307 306 307 305 308 308 307 307 307 309 308 311 310 308 307 306 305 305 304 304 303 301 299 297 295 294 295 296 297 296 297 299 300 304 305 308 310 319 324 329
309 308 307 306 305 305 305 306 307 307 310 308 309 309 311 311 310 309 307 306 305 304 304 303 302 301 299 297 294 293 293 295 296 295 294 297 299 300 303 304 307 313 315 322
308 308 308 307 305 305 306 305 305 306 309 308 308 309 310 309 308 308 306 306 304 304 303 302 301 300 298 295 294 292 292 292 295 294 293 295 297 298 300 301 305 308 309 312
307 307 306 306 306 306 306 307 309 311 310 310 310 308 310 309 307 306 305 304 303 303 302 301 300 298 296 294 293 292 291 290 292 292 292 292 293 295 298 297 301 307 304 306
307 305 306 306 306 306 305 305 306 309 307 309 307 305 309 308 307 306 304 303 302 301 301 300 298 297 295 294 293 292 290 290 291 292 290 291 291 292 295 296 299 302 302 301
305 304 305 306 306 307 307 305 306 307 307 305 306 306 308 308 306 305 303 302 301 300 300 299 297 296 294 293 292 291 290 289 289 290 289 289 290 290 291 294 296 299 301 299
305 304 304 305 305 305 306 306 305 306 306 306 305 304 307 306 305 303 302 301 299 299 298 297 296 295 294 293 292 291 290 289 289 289 289 288 289 289 290 291 296 298 299 300
303 305 306 306 304 304 304 303 305 305 304 304 304 305 306 304 303 302 301 300 299 298 297 296 295 294 293 292 291 290 290 290 289 288 288 288 289 288 289 290 292 297 300 299
305 304 306 305 304 304 304 303 304 304 305 306 306 305 304 303 302 301 300 299 298 297 296 295 294 293 292 291 291 290 290 290 289 288 287 287 288 288 288 289 289 291 292 296
305 305 307 306 306 305 305 306 306 306 306 305 304 304 303 302 301 301 300 299 297 296 295 294 293 292 292 291 290 289 290 289 289 287 287 287 287 287 288 288 289 289 290 291
305 306 306 306 306 305 306 306 305 304 304 305 305 303 302 302 301 301 300 298 296 295 294 293 292 291 291 291 290 289 289 289 288 286 286 287 287 287 287 287 288 288 289 289
304 306 308 307 306 306 308 305 304 304 303 304 303 302 301 301 302 302 298 296 294 294 293 292 291 290 290 290 289 288 288 288 286 286 286 286 286 286 286 286 287 287 287 287
305 306 307 307 307 307 306 304 303 304 306 303 302 301 301 300 299 298 297 294 294 294 292 291 290 290 289 289 288 288 287 286 285 285 285 284 285 285 285 285 285 285 285 286
306 306 306 306 306 307 305 304 304 305 302 301 300 299 299 298 298 297 295 294 294 293 292 290 289 288 288 288 287 286 286 285 284 284 283 284 284 284 284 284 284 284 284 284
306 308 308 308 307 305 304 306 304 303 302 300 299 298 298 298 297 295 294 293 292 291 290 289 288 287 287 286 286 285 284 284 283 283 283 284 284 283 284 284 284 284 284 283
304 305 309 306 306 305 304 303 302 301 300 299 298 298 297 296 294 293 292 291 290 289 287 286 286 285 285 284 284 284 283 282 282 282 282 283 283 283 283 283 283 283 283 282
307 305 306 304 304 304 304 302 301 299 298 298 297 296 294 293 292 291 290 289 287 286 285 284 283 283 283 282 282 282 281 281 281 280 281 282 282 282 282 282 282 283 283 282
305 305 306 305 305 303 303 301 299 298 297 297 296 295 293 291 290 289 288 287 285 283 282 282 281 280 281 280 280 280 280 280 280 280 281 282 281 281 282 282 282 282 282 282
Wind_Speed
15 8 11 12 7 7 6 8 10 12 12 6 8 12 15 10 12 12 15 13 13 17 19 23 27 28 25 26 29 30 28 18 17 17 16 19 26 25 29 32 36 34 37 41
9 11 11 2 1 6 9 12 14 13 8 5 13 16 15 8 13 10 8 9 20 20 22 23 25 25 26 24 29 32 34 31 24 22 20 23 24 27 25 34 34 38 37 41
12 4 6 4 7 7 10 14 15 11 12 14 20 20 16 17 18 11 11 18 18 18 19 20 22 23 26 29 33 33 36 36 33 29 26 27 31 24 22 30 30 36 39 44
11 9 6 7 10 9 11 6 7 8 11 12 13 9 11 19 15 9 19 15 16 18 17 19 22 26 26 28 32 33 34 35 34 33 31 28 30 32 28 24 26 41 35 37
5 7 6 10 12 2 7 7 9 13 15 16 16 10 15 20 19 16 15 14 13 13 16 20 23 24 24 27 31 30 34 34 33 31 29 30 31 36 39 34 31 34 39 43
14 7 3 4 4 1 7 10 15 16 11 10 19 15 9 11 11 16 13 11 12 14 16 18 20 22 24 26 31 35 32 37 35 32 27 28 30 30 37 41 39 34 30 42
12 12 8 5 7 9 6 8 5 5 6 10 3 3 3 15 13 13 11 10 9 10 15 19 23 26 28 30 32 35 37 37 37 35 30 26 29 26 25 24 29 42 39 36
12 7 17 12 12 5 12 4 5 5 4 6 3 5 10 20 20 15 10 8 13 15 14 16 18 21 24 28 33 34 35 36 36 36 32 26 24 26 20 18 17 27 36 36
8 10 13 8 5 2 5 6 4 5 9 9 9 13 17 22 15 13 8 7 10 13 15 17 17 21 23 27 30 33 34 35 32 34 32 26 23 21 18 19 14 7 18 23
8 4 10 9 3 6 7 6 3 4 4 6 7 7 8 9 6 5 8 9 10 13 16 18 19 23 24 30 35 33 33 32 31 30 30 26 22 21 13 16 17 7 8 8
7 6 8 9 8 11 6 5 7 7 8 6 6 1 4 5 8 6 10 10 13 16 17 18 21 21 25 35 37 36 35 32 31 31 29 27 23 22 16 15 14 10 13 14
10 3 8 12 7 2 9 7 10 5 5 5 6 11 11 11 7 8 10 14 15 17 19 19 22 23 29 32 36 36 37 32 32 30 28 28 27 22 18 17 16 13 19 19
6 4 6 10 5 9 8 13 10 5 1 7 5 5 9 8 5 8 11 14 15 18 20 21 22 24 26 28 32 32 36 34 33 30 27 27 29 26 20 20 15 14 15 24
3 5 8 9 5 7 14 14 13 12 8 10 12 14 7 6 4 9 9 14 16 19 21 22 22 23 25 25 28 28 34 31 33 33 30 26 31 28 27 21 19 14 13 19
2 4 9 14 14 7 9 12 14 17 15 12 13 15 9 9 7 10 17 18 19 19 20 20 21 22 23 24 26 27 33 31 31 32 34 29 26 29 29 27 19 15 14 16
5 2 3 10 12 11 13 13 12 14 15 17 17 10 7 10 12 14 14 13 15 17 18 19 20 21 22 24 25 27 30 29 32 28 32 33 28 29 26 27 23 18 13 15
6 5 6 7 14 13 14 13 14 16 14 2 8 9 11 9 10 10 9 10 14 16 17 19 19 20 23 24 25 27 27 28 28 31 29 30 34 29 27 26 23 22 17 11
9 10 7 6 2 12 9 1 10 5 2 4 9 7 5 8 10 5 3 10 14 15 17 17 19 20 21 22 24 26 24 26 28 30 30 29 31 28 28 29 24 22 17 16
11 9 5 4 8 7 6 5 2 2 7 6 5 2 4 9 11 2 4 10 12 14 16 16 17 19 19 21 22 24 25 24 29 33 32 30 29 28 25 24 23 23 22 17
13 9 5 6 9 7 8 8 6 7 5 6 4 1 5 8 7 4 9 11 13 13 15 17 18 18 18 19 22 23 24 25 31 32 30 28 27 26 26 25 22 22 20 17
8 6 8 7 5 1 9 10 4 3 1 5 2 2 3 4 6 13 12 13 12 14 16 16 17 17 18 19 20 21 22 25 29 28 28 27 26 26 25 25 23 24 22 21
9 7 6 6 4 9 14 9 3 7 5 3 1 1 2 6 9 10 12 13 14 15 16 16 17 18 17 18 20 20 20 23 26 26 27 26 26 26 26 27 25 27 27 26
6 4 4 1 1 5 11 11 9 4 8 5 3 3 5 8 8 9 11 13 14 15 15 16 17 17 17 18 19 20 22 24 26 27 25 23 26 25 25 25 23 23 25 26
7 10 1 2 6 9 7 7 6 5 6 5 2 2 4 6 8 9 11 13 13 14 15 16 16 16 17 19 19 19 21 24 24 26 25 24 26 25 25 24 23 23 25 28
7 10 7 2 4 7 5 7 7 6 5 3 2 1 3 5 7 9 11 12 12 13 14 15 15 16 17 19 19 19 21 23 25 26 25 25 25 24 24 23 22 21 20 23
8 7 6 2 9 7 6 12 8 8 5 3 1 2 3 5 7 9 10 10 13 13 14 15 17 18 18 19 18 19 22 22 24 25 23 24 25 22 22 25 25 21 20 20
Wind_Direction
204 229 238 260 24 28 322 304 289 285 290 330 287 285 281 277 76 68 64 50 33 24 26 11 7 358 343 350 338 339 329 326 313 303 301 317 315 288 262 252 247 245 242 240
216 245 252 144 208 301 297 290 280 282 287 303 283 282 281 169 118 100 77 52 45 23 9 6 4 358 354 343 347 346 339 335 327 304 277 288 286 275 281 266 256 243 239 243
238 299 93 263 263 269 264 262 283 264 312 295 272 259 261 139 133 128 91 61 42 30 13 7 5 3 356 352 355 355 349 341 331 322 302 277 266 263 280 270 264 250 245 239
248 247 192 236 254 258 268 9 309 285 283 278 327 290 210 158 160 131 69 55 40 28 17 11 2 1 358 351 345 348 353 349 337 325 318 305 293 285 261 262 276 254 248 248
240 221 229 260 258 312 242 13 297 282 279 284 269 260 257 168 170 103 80 56 45 31 16 3 360 354 349 344 341 343 345 351 344 327 317 314 301 286 278 266 260 256 255 246
249 4 255 296 31 140 329 300 275 255 247 259 262 233 261 167 115 96 80 56 38 19 3 357 353 346 342 340 339 339 345 344 347 338 318 313 311 303 293 275 263 260 267 248
225 224 213 223 238 205 229 264 282 227 214 243 118 292 324 99 79 83 63 53 27 8 1 354 347 343 340 339 341 340 341 343 343 341 327 312 307 310 304 300 285 265 253 256
207 213 209 180 228 301 206 257 274 298 300 316 322 246 122 110 104 96 67 39 10 2 352 345 342 340 338 336 339 339 338 339 341 342 332 323 314 302 319 322 318 272 262 258
238 205 106 148 162 209 181 227 5 307 285 266 261 275 123 123 119 122 82 33 360 349 344 343 344 341 339 334 338 332 338 336 342 340 335 326 324 306 321 333 349 311 266 268
306 139 173 157 200 224 248 11 232 202 244 255 266 284 78 99 72 39 41 17 5 344 340 343 342 341 330 331 335 335 336 337 340 343 339 329 329 325 314 338 333 23 358 263
245 250 175 155 207 224 187 233 232 270 269 270 289 59 90 101 68 27 16 1 355 347 344 342 342 339 326 334 338 340 340 338 342 344 344 342 334 326 345 339 325 34 21 353
233 273 240 214 267 264 317 249 216 229 272 252 257 279 61 63 47 18 2 351 349 339 339 340 340 336 335 338 339 343 341 340 345 344 348 347 343 340 337 349 350 286 29 342
135 232 229 217 212 210 240 243 231 159 188 263 295 270 96 60 358 20 0 346 338 333 332 340 341 340 340 341 341 344 339 342 345 348 347 346 348 348 343 353 1 359 328 4
50 240 252 258 315 322 205 238 216 198 216 245 240 278 134 101 354 26 342 333 344 335 338 340 342 341 342 343 343 344 338 348 343 349 348 351 350 354 351 349 1 4 352 346
221 242 263 272 283 268 278 218 234 231 236 253 273 276 35 27 359 2 352 352 344 339 338 341 341 342 342 343 345 345 341 350 349 346 348 354 357 355 357 357 353 1 356 356
208 226 281 284 263 261 254 258 251 247 255 269 272 291 63 2 353 355 352 345 338 337 340 341 340 341 343 343 345 342 347 348 345 350 348 351 2 1 359 359 356 348 353 339
192 215 216 259 247 243 250 246 254 256 247 323 285 303 357 347 347 353 338 338 338 338 340 339 340 340 340 342 341 343 346 347 347 347 355 357 356 3 357 359 6 9 1 357
198 209 238 260 237 237 245 139 344 224 277 243 262 254 338 316 316 328 349 332 335 336 336 337 337 337 338 339 339 342 348 346 343 345 355 358 351 359 359 357 4 0 6 15
208 206 232 230 238 255 181 196 194 224 257 260 247 317 305 312 315 121 349 336 333 332 332 333 334 335 336 338 339 342 347 344 340 347 352 354 350 353 357 353 0 357 2 356
209 223 250 225 243 266 60 100 109 104 252 178 142 295 306 316 299 94 341 335 335 330 332 333 335 336 337 339 340 344 346 341 342 344 346 346 347 351 351 348 358 358 0 358
194 197 228 234 253 241 150 138 159 210 113 114 60 340 7 309 321 315 328 330 331 331 334 336 338 339 339 340 341 344 343 345 336 339 341 347 351 352 347 354 0 1 356 2
190 196 201 232 258 252 149 135 211 115 123 146 179 282 292 289 299 316 325 329 332 334 336 339 339 339 339 341 342 344 343 336 334 341 345 353 350 350 353 357 0 358 357 359
190 201 215 311 158 110 122 98 99 105 153 146 173 245 278 303 318 326 328 332 334 337 340 339 338 338 340 343 345 344 340 338 339 343 350 354 346 355 356 358 357 356 353 353
207 156 150 187 173 143 123 106 119 125 136 147 175 282 316 324 326 330 332 334 337 339 340 339 342 344 344 344 346 344 336 333 341 345 351 351 350 355 354 357 355 355 352 351
160 176 172 211 228 119 155 155 160 141 132 151 162 352 345 335 333 334 335 338 338 339 342 345 345 344 342 342 343 342 337 344 348 347 351 352 351 350 350 353 353 354 351 346
174 174 186 235 181 158 172 150 165 156 152 177 199 302 327 338 339 339 339 334 326 342 342 343 343 343 344 341 343 344 345 351 350 346 353 349 345 349 353 350 351 355 350 350